Station CHSV3 - 9751364 - Christiansted Harbor, St. Croix, VI Image indicating link to RSS feed of recent meteorological observations for station CHSV3


Conditions at CHSV3 as of
(8:54 pm AST on 05/20/2024)
0054 GMT on 05/21/2024:
     

Click on the graph icon in the table below to see a time series plot of the last five days of that observation.

5-day plot - Wind Direction Wind Direction (WDIR):ESE ( 110 deg true )
5-day plot - Wind Speed Wind Speed (WSPD): 1.0 kts
5-day plot - Wind Gust Wind Gust (GST): 4.1 kts
5-day plot - Air Temperature Air Temperature (ATMP): 82.9 °F
5-day plot - Water Temperature Water Temperature (WTMP): 86.0 °F
5-day plot - Wind Speed at 10 Meters Wind Speed at 10 meters (WSPD10M): 1.9 kts
5-day plot - Wind Speed at 20 Meters Wind Speed at 20 meters (WSPD20M): 1.9 kts
5-day plot -  Wind Speed, Wind Gust and Atmospheric Pressure Combined plot of Wind Speed, Gust, and Air Pressure
NOS Water Level Observation Network Water Level
Previous observations
TIME
(AST)
5-day plot - Wind Direction
WDIR
 
5-day plot - Wind Speed
WSPD
kts
5-day plot - Wind Gust
GST
kts
5-day plot - Wave Height
WVHT
ft
5-day plot - Dominant Wave Period
DPD
sec
5-day plot - Average Wave Period
APD
sec
5-day plot - Mean Wave Direction
MWD
 
5-day plot - Atmospheric Pressure
PRES
in
5-day plot - Pressure Tendency
PTDY
in
5-day plot - Air Temperature
ATMP
°F
5-day plot - Water Temperature
WTMP
°F
5-day plot - Dew Point
DEWP
°F
5-day plot - Salinity
SAL
psu
5-day plot - Visibility
VIS
nmi
5-day plot - Tide (above MLLW)
TIDE
ft
2024-05-20 08:48 pmESE 1.0 2.9----29.91- 82.8 86.0----
2024-05-20 08:42 pm E 1.0 2.9----29.91- 82.8 86.0----
2024-05-20 08:36 pmESE 1.0 1.9----29.91- 82.8 86.0----
2024-05-20 08:30 pm E 1.9 4.1----29.91- 82.8 86.0----
2024-05-20 08:24 pm E 1.0 4.1----29.91- 82.6 86.0----
2024-05-20 08:18 pmENE 1.9 4.1----29.91- 82.8 86.0----
2024-05-20 08:12 pmENE 1.9 2.9----29.91- 82.8 86.0----
2024-05-20 08:06 pmENE 1.9 4.1----29.91- 82.9 86.0----
2024-05-20 08:00 pm E 1.9 5.1----29.90+0.04 82.9 86.0----
2024-05-20 07:54 pmENE 2.9 4.1----29.90- 82.9 86.0----
2024-05-20 07:48 pmENE 1.0 5.1----29.90- 83.1 86.0----
2024-05-20 07:42 pmENE 1.9 5.1----29.90- 83.1 86.2----
2024-05-20 07:36 pmENE 1.9 5.1----29.90- 83.3 86.2----
2024-05-20 07:30 pmENE 1.9 5.1----29.89- 83.3 86.2----
2024-05-20 07:24 pm NE 1.0 4.1----29.89- 83.3 86.2----
2024-05-20 07:18 pmENE 2.9 5.1----29.89- 83.5 86.2----
2024-05-20 07:12 pm E 1.9 5.1----29.89- 83.8 86.2----
2024-05-20 07:06 pm E 1.9 5.1----29.88- 83.8 86.2----
2024-05-20 07:00 pm E 1.9 6.0----29.88+0.01- 86.2----
2024-05-20 06:54 pm E 2.9 5.1----29.88-- 86.2----
2024-05-20 06:48 pmESE 2.9 7.0----29.88-- 86.2----
2024-05-20 06:42 pmESE 5.1 8.0----29.88-- 86.2----
2024-05-20 06:36 pmESE 6.0 8.9----29.88-- 86.2----
2024-05-20 06:30 pmESE 4.1 7.0----29.87- 85.3 86.2----
2024-05-20 06:24 pmESE 4.1 11.1----29.87- 85.5 86.2----
2024-05-20 06:18 pmESE 5.1 7.0----29.87- 85.8 86.2----
2024-05-20 06:12 pmESE 4.1 8.9----29.87- 86.2 86.2----
2024-05-20 06:06 pmESE 5.1 9.9----29.87- 86.2 86.2----
2024-05-20 06:00 pmESE 6.0 11.1----29.87-0.01 86.2 86.2----
2024-05-20 05:54 pmESE 5.1 9.9----29.87- 86.5 86.2----
2024-05-20 05:48 pm E 5.1 8.9----29.86- 86.5 86.2----
2024-05-20 05:42 pmESE 5.1 8.0----29.86- 87.3 86.2----
2024-05-20 05:36 pm E 5.1 8.0----29.86- 87.1 86.2----
2024-05-20 05:30 pm E 2.9 8.0----29.86- 87.6 86.2----
2024-05-20 05:24 pmESE 5.1 9.9----29.86- 86.7 86.2----
2024-05-20 05:18 pm E 6.0 13.0----29.86- 86.4 86.2----
2024-05-20 05:12 pm E 6.0 8.9----29.86- 86.5 86.2----
2024-05-20 05:06 pm E 2.9 11.1----29.86- 87.3 86.2----
2024-05-20 05:00 pm E 6.0 9.9----29.86-0.04 87.4 86.2----
2024-05-20 04:54 pm E 6.0 11.1----29.86- 87.3 86.2----
2024-05-20 04:48 pm E 6.0 8.9----29.87- 86.9 86.2----
2024-05-20 04:42 pmESE 7.0 9.9----29.87- 88.0 86.2----
2024-05-20 04:36 pm E 5.1 8.9----29.87- 88.0 86.2----
2024-05-20 04:30 pmESE 5.1 11.1----29.87-------
2024-05-20 04:24 pm E 5.1 12.0----29.87-------
2024-05-20 04:18 pm E 6.0 11.1----29.86- 87.6 86.2----
2024-05-20 04:12 pm E 2.9 11.1----29.86- 88.5 86.2----
2024-05-20 04:06 pmESE 7.0 12.0----29.86- 88.9 86.2----
2024-05-20 04:00 pmESE 6.0 13.0----29.87-0.06 88.0 86.2----
2024-05-20 03:54 pmESE 8.0 13.0----29.87- 87.8 86.2----
2024-05-20 03:48 pm E 5.1 12.0----29.87- 88.0 86.2----
2024-05-20 03:42 pmESE 7.0 12.0----29.87- 87.4 86.2----
2024-05-20 03:36 pm SE 6.0 12.0----29.88- 88.5 86.2----
2024-05-20 03:30 pm E 6.0 12.0----29.88- 87.4 86.2----
2024-05-20 03:24 pmESE 6.0 13.0----29.88- 88.9 86.2----
2024-05-20 03:18 pm E 6.0 11.1----29.88- 88.5 86.2----
2024-05-20 03:12 pm E 7.0 12.0----29.88- 87.8 86.2----
2024-05-20 03:06 pmESE 8.9 14.0----29.88- 88.5 86.2----
2024-05-20 03:00 pmESE 6.0 12.0----29.88-0.06 88.7 86.2----
2024-05-20 02:54 pmESE 7.0 13.0----29.88- 88.7 86.0----
2024-05-20 02:48 pmESE 6.0 11.1----29.89- 89.2 86.0----
2024-05-20 02:42 pm E 6.0 11.1----29.89- 88.5 86.0----
2024-05-20 02:36 pm E 7.0 14.0----29.89- 88.7 86.0----
2024-05-20 02:30 pmESE 7.0 11.1----29.89- 88.9 86.0----
2024-05-20 02:24 pm E 5.1 13.0----29.90- 88.2 86.0----
2024-05-20 02:18 pmESE 8.9 13.0----29.90- 88.9 86.0----
2024-05-20 02:12 pm E 7.0 12.0----29.90- 88.7 86.0----
2024-05-20 02:06 pm E 7.0 14.0----29.90- 88.5 86.0----
2024-05-20 02:00 pm E 7.0 12.0----29.90-0.05 88.3 86.0----
2024-05-20 01:54 pm E 6.0 12.0----29.91- 88.0 86.0----
2024-05-20 01:48 pm E 7.0 13.0----29.91- 88.0 86.0----
2024-05-20 01:42 pm E 5.1 9.9----29.91- 88.0 86.0----
2024-05-20 01:36 pmESE 6.0 12.0----29.92- 88.7 85.8----
2024-05-20 01:30 pm SE 7.0 12.0----29.92- 89.1 85.8----
2024-05-20 01:24 pm SE 8.9 13.0----29.92- 89.2 85.8----
2024-05-20 01:18 pm SE 7.0 12.0----29.92- 89.6 85.8----
2024-05-20 01:12 pm E 5.1 12.0----29.93- 89.1 85.8----
2024-05-20 01:06 pm E 7.0 12.0----29.93- 88.7 85.8----
2024-05-20 01:00 pm E 5.1 12.0----29.93-0.03 88.5 85.8----
2024-05-20 12:54 pm E 4.1 13.0----29.93- 88.3 85.8----
2024-05-20 12:48 pmESE 7.0 12.0----29.93- 88.3 85.6----
2024-05-20 12:42 pm E 8.0 11.1----29.94- 87.8 85.6----
2024-05-20 12:36 pm E 6.0 11.1----29.94- 88.0 85.6----
2024-05-20 12:30 pm E 5.1 9.9----29.94- 88.7 85.6----
2024-05-20 12:24 pm E 5.1 12.0----29.94- 88.2 85.6----
2024-05-20 12:18 pm E 6.0 14.0----29.94- 88.2 85.8----
2024-05-20 12:12 pm E 7.0 12.0----29.94- 87.8 85.8----
2024-05-20 12:06 pm E 7.0 12.0----29.94- 88.3 85.8----
2024-05-20 12:00 pmESE 6.0 12.0----29.94-0.01 88.3 85.6----
2024-05-20 11:54 am E 6.0 12.0----29.94- 88.5 85.6----
2024-05-20 11:48 am E 5.1 13.0----29.94- 87.8 85.6----
2024-05-20 11:42 am E 4.1 12.0----29.94- 88.2 85.6----
2024-05-20 11:36 amESE 7.0 14.0----29.95- 88.2 85.6----
2024-05-20 11:30 amESE 8.0 13.0----29.95- 88.2 85.6----
2024-05-20 11:24 am SE 6.0 14.0----29.95- 88.9 85.6----
2024-05-20 11:18 amESE 8.0 11.1----29.95- 88.9 85.5----
2024-05-20 11:12 amENE 4.1 12.0----29.95- 88.0 85.5----
2024-05-20 11:06 am E 7.0 11.1----29.95- 88.0 85.5----
2024-05-20 11:00 am E 6.0 12.0----29.95+0.01 88.7 85.5----
2024-05-20 10:54 am E 5.1 12.0----29.95- 88.2 85.5----
2024-05-20 10:48 amENE 5.1 11.1----29.95- 87.8 85.3----
2024-05-20 10:42 amENE 7.0 11.1----29.96- 88.0 85.3----
2024-05-20 10:36 am E 4.1 11.1----29.96- 87.8 85.3----
2024-05-20 10:30 amESE 7.0 11.1----29.96- 89.1 85.3----
2024-05-20 10:24 am E 5.1 9.9----29.96- 88.0 85.3----
2024-05-20 10:18 amENE 4.1 8.9----29.96- 87.8 85.3----
2024-05-20 10:12 am E 6.0 11.1----29.96- 88.2 85.5----
2024-05-20 10:06 am E 5.1 8.9----29.96- 88.0 85.5----
2024-05-20 10:00 am E 5.1 9.9----29.96+0.03 88.0 85.5----
2024-05-20 09:54 amENE 6.0 11.1----29.96- 87.4 85.5----
2024-05-20 09:48 amESE 6.0 11.1----29.96- 88.3 85.5----
2024-05-20 09:42 amENE 4.1 12.0----29.96- 87.4 85.5----
2024-05-20 09:36 am E 5.1 8.9----29.96- 87.8 85.5----
2024-05-20 09:30 amENE 5.1 11.1----29.96- 87.4 85.5----
2024-05-20 09:24 amENE 2.9 8.0----29.96- 87.6 85.5----
2024-05-20 09:18 am E 6.0 11.1----29.96- 86.7 85.5----
2024-05-20 09:12 am E 7.0 9.9----29.96- 86.2 85.5----
2024-05-20 09:06 am E 2.9 9.9----29.96- 87.3 85.5----
2024-05-20 09:00 amESE 7.0 11.1----29.95+0.04 86.7 85.5----
2024-05-20 08:54 am E 5.1 9.9----29.96- 86.7 85.5----
2024-05-20 08:48 am E 7.0 12.0----29.95- 87.1 85.5----
2024-05-20 08:42 am E 1.9 8.9----29.95- 86.5 85.5----
2024-05-20 08:36 am E 5.1 11.1----29.95- 86.9 85.5----
2024-05-20 08:30 am E 7.0 12.0----29.95- 86.9 85.5----
2024-05-20 08:24 am E 6.0 9.9----29.95- 87.1 85.5----
2024-05-20 08:18 am E 4.1 9.9----29.95- 86.7 85.5----
2024-05-20 08:12 am E 4.1 8.0----29.94- 86.7 85.3----
2024-05-20 08:06 am E 5.1 8.0----29.94- 86.7 85.3----
2024-05-20 08:00 am E 2.9 6.0----29.94+0.04 87.4 85.3----
2024-05-20 07:54 am E 2.9 7.0----29.94- 86.9 85.5----
2024-05-20 07:48 am E 1.9 5.1----29.94- 87.4 85.5----
2024-05-20 07:42 am E 2.9 7.0----29.94- 86.2 85.6----
2024-05-20 07:36 am E 4.1 7.0----29.94- 85.5 85.6----
2024-05-20 07:30 am E 2.9 5.1----29.94- 86.7 85.6----
2024-05-20 07:24 am E 1.9 5.1----29.94- 86.4 85.6----
2024-05-20 07:18 am E 1.9 4.1----29.94- 85.3 85.6----
2024-05-20 07:12 am E 1.9 4.1----29.93- 85.1 85.6----
2024-05-20 07:06 am E 1.9 5.1----29.93- 84.9 85.6----
2024-05-20 07:00 am E 2.9 6.0----29.93+0.03 84.9 85.6----
2024-05-20 06:54 am E 1.9 2.9----29.93- 84.7 85.6----
2024-05-20 06:48 am E 1.9 4.1----29.93- 84.0 85.6----
2024-05-20 06:42 am E 1.9 2.9----29.93- 83.1 85.6----
2024-05-20 06:36 am E 1.9 2.9----29.92- 82.4 85.6----
2024-05-20 06:30 am E 1.0 2.9----29.92- 82.4 85.6----
2024-05-20 06:24 am- 0.0 2.9----29.92- 82.0 85.8----
2024-05-20 06:18 amENE 1.9 2.9----29.92- 81.7 85.8----
2024-05-20 06:12 am E 1.0 2.9----29.92- 81.5 85.8----
2024-05-20 06:06 am E 1.0 1.9----29.92- 81.3 85.8----
2024-05-20 06:00 am E 1.9 2.9----29.92+0.02 81.3 85.8----
2024-05-20 05:54 am E 1.0 2.9----29.91- 81.1 85.8----
2024-05-20 05:48 am E 1.0 2.9----29.91- 81.0 85.8----
2024-05-20 05:42 am E 1.9 2.9----29.91- 81.0 85.8----
2024-05-20 05:36 am- 0.0 2.9----29.91- 81.0 85.8----
2024-05-20 05:30 amESE 1.0 2.9----29.91- 81.1 85.8----
2024-05-20 05:24 am E 1.9 2.9----29.91- 81.0 85.8----
2024-05-20 05:18 amESE 1.9 4.1----29.91- 81.0 85.8----
2024-05-20 05:12 amESE 1.9 4.1----29.91- 80.8 85.8----
2024-05-20 05:06 amESE 1.9 4.1----29.90- 80.8 85.8----
2024-05-20 05:00 am E 1.9 2.9----29.90-0.01 80.8 85.8----
2024-05-20 04:54 am E 1.0 2.9----29.90- 80.6 85.8----
2024-05-20 04:48 am E 1.9 2.9----29.90- 80.8 85.8----
2024-05-20 04:42 amESE 1.9 2.9----29.90- 80.8 85.8----
2024-05-20 04:36 am E 1.9 2.9----29.90- 80.8 85.8----
2024-05-20 04:30 am E 1.9 2.9----29.90- 80.6 85.8----
2024-05-20 04:24 amESE 1.0 2.9----29.90- 80.8 85.8----
2024-05-20 04:18 am E 1.9 2.9----29.90- 80.8 85.8----
2024-05-20 04:12 am E 1.0 2.9----29.90- 80.8 85.8----
2024-05-20 04:06 am- 0.0 2.9----29.90- 80.8 85.8----
2024-05-20 04:00 am E 1.9 2.9----29.90-0.04 80.8 85.8----
2024-05-20 03:54 am E 1.0 1.9----29.90- 80.8 85.8----
2024-05-20 03:48 am- 0.0 2.9----29.90- 80.8 85.8----
2024-05-20 03:42 am E 1.0 1.9----29.90- 80.8 85.8----
2024-05-20 03:36 am- 0.0 1.9----29.90- 80.8 85.8----
2024-05-20 03:30 am- 0.0 1.0----29.90- 81.0 85.8----
2024-05-20 03:24 am- 0.0 1.0----29.90- 80.8 86.0----
2024-05-20 03:18 am- 0.0 1.0----29.90- 81.0 86.0----
2024-05-20 03:12 am- 0.0 1.9----29.90- 80.8 86.0----
2024-05-20 03:06 am- 0.0 1.9----29.90- 80.8 86.0----
2024-05-20 03:00 amESE 1.9 2.9----29.90-0.06 81.1 86.0----
2024-05-20 02:54 am E 1.9 2.9----29.90- 81.0 86.0----
2024-05-20 02:48 am- 0.0 1.9----29.90- 81.1 86.0----
2024-05-20 02:42 amESE 1.0 1.9----29.90- 81.1 86.0----
2024-05-20 02:36 amESE 1.9 1.9----29.90- 81.1 86.0----
2024-05-20 02:30 am E 1.0 2.9----29.91- 81.1 86.0----
2024-05-20 02:24 am E 1.0 1.9----29.91- 81.1 86.0----
2024-05-20 02:18 amESE 1.0 2.9----29.91- 81.1 86.0----
2024-05-20 02:12 amESE 1.9 2.9----29.91- 81.0 86.0----
2024-05-20 02:06 am SE 1.0 1.9----29.91- 81.1 86.2----
2024-05-20 02:00 amESE 1.0 2.9----29.91-0.05 81.1 86.2----
2024-05-20 01:54 am SE 1.0 1.9----29.92- 81.1 86.2----
2024-05-20 01:48 am- 0.0 2.9----29.92- 81.1 86.2----
2024-05-20 01:42 amESE 1.9 2.9----29.92- 81.1 86.2----
2024-05-20 01:36 am- 0.0 1.0----29.93- 81.3 86.2----
2024-05-20 01:30 amESE 1.0 1.9----29.93- 81.3 86.2----
2024-05-20 01:24 am E 1.0 2.9----29.93- 81.5 86.2----
2024-05-20 01:18 am-------29.93-- 86.2----
2024-05-20 01:12 am-------29.93-- 86.2----
2024-05-20 01:06 am-------29.93-- 86.2----
2024-05-20 01:00 am E 1.0 1.9----29.94-0.02 81.5 86.4----
2024-05-20 12:54 am- 0.0 1.9----29.94- 81.7 86.4----
2024-05-20 12:48 am- 0.0 1.9----29.94- 81.9 86.4----
2024-05-20 12:42 am E 1.0 2.9----29.94- 81.9 86.4----
2024-05-20 12:36 am E 1.9 2.9----29.94- 81.7 86.4----
2024-05-20 12:30 amESE 1.0 1.9----29.94- 81.7 86.4----
2024-05-20 12:24 amESE 1.9 2.9----29.95- 81.7 86.4----
2024-05-20 12:00 amESE 1.9 1.9----29.95+0.00 81.3 86.4----
2024-05-19 11:54 pm SE 1.9 2.9----29.96- 81.7 86.4----
2024-05-19 11:48 pmESE 1.9 2.9----29.96- 81.7 86.4----
2024-05-19 11:42 pmESE 1.0 2.9----29.96- 81.9 86.4----
2024-05-19 11:36 pm SE 1.0 1.9----29.97- 81.9 86.4----
2024-05-19 11:30 pm- 0.0 1.9----29.96- 81.9 86.4----
2024-05-19 11:24 pm SE 1.0 1.0----29.96- 82.2 86.5----
2024-05-19 11:18 pm- 0.0 1.0----29.96-- 86.5----
2024-05-19 11:12 pm E 1.0 2.9----29.96-- 86.5----
2024-05-19 11:06 pmESE 1.0 2.9----29.96-- 86.5----
2024-05-19 11:00 pmESE 1.9 2.9----29.96+0.02 82.4 86.5----
2024-05-19 10:54 pmESE 1.0 1.9----29.96- 82.6 86.5----
2024-05-19 10:48 pmESE 1.0 2.9----29.96- 82.8 86.5----
2024-05-19 10:42 pmESE 1.9 1.9----29.97- 82.8 86.5----
2024-05-19 10:36 pm E 1.0 1.9----29.97- 82.8 86.5----
2024-05-19 10:30 pm E 1.0 1.9----29.97- 82.8 86.5----
2024-05-19 10:24 pmESE 1.9 2.9----29.96- 82.8 86.5----
2024-05-19 10:18 pm E 1.0 2.9----29.96-- 86.5----
2024-05-19 10:12 pm- 0.0 1.9----29.96- 82.9 86.5----
2024-05-19 10:06 pm SE 1.0 1.9----29.96- 82.9 86.5----
2024-05-19 10:00 pmESE 1.0 1.9----29.96- 82.9 86.5----
2024-05-19 09:54 pm E 1.9 2.9----29.96- 82.9 86.5----
2024-05-19 09:48 pm- 0.0 1.9----29.96-- 86.5----
2024-05-19 09:42 pmESE 1.0 2.9----29.96- 83.1 86.5----
2024-05-19 09:36 pm- 0.0 1.9----29.96- 83.1 86.5----
2024-05-19 09:30 pm E 1.9 2.9----29.96-- 86.5----
2024-05-19 09:24 pm E 1.0 2.9----29.96-- 86.5----
2024-05-19 09:18 pm E 1.0 4.1----29.96-- 86.5----
2024-05-19 09:12 pm- 0.0 2.9----29.96-- 86.5----
2024-05-19 09:06 pm E 1.9 4.1----29.95-- 86.5----
2024-05-19 09:00 pmENE 1.9 4.1----29.95+0.05- 86.5----
2024-05-19 08:54 pmENE 1.0 4.1----29.95-- 86.5----